TimeEST,TemperatureF,Dew PointF,Humidity,Sea Level PressureIn,VisibilityMPH,Wind Direction,Wind SpeedMPH,Gust SpeedMPH,PrecipitationIn,Events,Conditions,WindDirDegrees,DateUTC
12:14 AM,41.0,33.8,76,29.65,10.0,SSW,11.5,-,N/A,,Overcast,200,2011-11-12 05:14:00
12:55 AM,41.0,33.8,76,29.64,10.0,SSW,9.2,-,N/A,,Overcast,200,2011-11-12 05:55:00
1:14 AM,41.0,33.8,76,29.64,10.0,SSW,10.4,16.1,N/A,,Overcast,200,2011-11-12 06:14:00
1:34 AM,41.0,33.8,76,29.64,10.0,SSW,10.4,-,N/A,,Mostly Cloudy,210,2011-11-12 06:34:00
1:55 AM,41.0,33.8,76,29.64,10.0,SSW,8.1,-,N/A,,Mostly Cloudy,210,2011-11-12 06:55:00
2:14 AM,41.0,33.8,76,29.63,10.0,SSW,12.7,17.3,N/A,,Scattered Clouds,210,2011-11-12 07:14:00
2:35 AM,41.0,35.6,81,29.63,10.0,SW,10.4,-,N/A,,Clear,220,2011-11-12 07:35:00
2:54 AM,41.0,35.6,81,29.64,10.0,SW,8.1,-,N/A,,Clear,230,2011-11-12 07:54:00
3:14 AM,41.0,35.6,81,29.64,10.0,SW,8.1,-,N/A,,Clear,230,2011-11-12 08:14:00
3:35 AM,41.0,35.6,81,29.63,10.0,SW,10.4,16.1,N/A,,Clear,230,2011-11-12 08:35:00
3:54 AM,41.0,35.6,81,29.63,10.0,WSW,10.4,-,N/A,,Clear,240,2011-11-12 08:54:00
4:14 AM,42.8,35.6,76,29.63,10.0,SW,12.7,19.6,N/A,,Clear,230,2011-11-12 09:14:00
5:14 AM,41.0,35.6,81,29.63,10.0,SW,12.7,20.7,N/A,,Clear,230,2011-11-12 10:14:00
5:35 AM,41.0,33.8,76,29.64,10.0,SW,12.7,19.6,N/A,,Clear,230,2011-11-12 10:35:00
5:54 AM,41.0,33.8,76,29.64,10.0,WSW,13.8,17.3,N/A,,Clear,240,2011-11-12 10:54:00
6:14 AM,41.0,35.6,81,29.65,10.0,SW,10.4,-,N/A,,Clear,230,2011-11-12 11:14:00
6:35 AM,41.0,33.8,76,29.65,10.0,SW,9.2,-,N/A,,Clear,230,2011-11-12 11:35:00
7:14 AM,41.0,33.8,76,29.67,10.0,SW,9.2,-,N/A,,Clear,230,2011-11-12 12:14:00
7:35 AM,41.0,35.6,81,29.67,10.0,SSW,5.8,-,N/A,,Clear,210,2011-11-12 12:35:00
7:54 AM,39.2,35.6,87,29.68,10.0,South,3.5,-,N/A,,Clear,180,2011-11-12 12:54:00
8:14 AM,39.2,35.6,87,29.68,10.0,South,3.5,-,N/A,,Clear,170,2011-11-12 13:14:00
8:34 AM,41.0,35.6,81,29.69,10.0,SSW,4.6,-,N/A,,Clear,210,2011-11-12 13:34:00
8:54 AM,41.0,35.6,81,29.71,10.0,SSW,4.6,-,N/A,,Clear,200,2011-11-12 13:54:00
9:15 AM,42.8,37.4,81,29.70,10.0,SSW,6.9,-,N/A,,Clear,210,2011-11-12 14:15:00
9:34 AM,44.6,37.4,76,29.70,10.0,South,6.9,-,N/A,,Clear,190,2011-11-12 14:34:00
9:54 AM,44.6,37.4,76,29.71,10.0,South,5.8,-,N/A,,Clear,180,2011-11-12 14:54:00
10:15 AM,46.4,37.4,71,29.72,10.0,SSW,6.9,-,N/A,,Clear,210,2011-11-12 15:15:00
10:34 AM,46.4,37.4,71,29.72,10.0,SW,11.5,-,N/A,,Clear,220,2011-11-12 15:34:00
10:55 AM,46.4,37.4,71,29.72,10.0,SW,13.8,-,N/A,,Clear,220,2011-11-12 15:55:00
11:14 AM,48.2,37.4,66,29.73,10.0,SSW,11.5,17.3,N/A,,Clear,200,2011-11-12 16:14:00
11:34 AM,48.2,37.4,66,29.72,10.0,SW,8.1,-,N/A,,Clear,220,2011-11-12 16:34:00
11:55 AM,50.0,37.4,62,29.72,10.0,South,8.1,-,N/A,,Clear,190,2011-11-12 16:55:00
12:15 PM,50.0,37.4,62,29.71,10.0,SSW,6.9,-,N/A,,Clear,200,2011-11-12 17:15:00
12:34 PM,51.8,35.6,54,29.70,10.0,SW,6.9,-,N/A,,Clear,220,2011-11-12 17:34:00
12:55 PM,51.8,33.8,50,29.69,10.0,SSW,8.1,-,N/A,,Clear,210,2011-11-12 17:55:00
1:14 PM,53.6,33.8,47,29.70,10.0,SSW,6.9,-,N/A,,Clear,200,2011-11-12 18:14:00
1:34 PM,53.6,33.8,47,29.70,10.0,SSW,6.9,-,N/A,,Clear,200,2011-11-12 18:34:00
1:55 PM,53.6,33.8,47,29.69,10.0,SSW,8.1,-,N/A,,Clear,200,2011-11-12 18:55:00
2:14 PM,53.6,35.6,51,29.69,10.0,South,9.2,-,N/A,,Clear,190,2011-11-12 19:14:00
2:34 PM,53.6,35.6,51,29.69,10.0,South,10.4,-,N/A,,Clear,190,2011-11-12 19:34:00
2:55 PM,53.6,35.6,51,29.69,10.0,SSW,8.1,-,N/A,,Clear,210,2011-11-12 19:55:00
3:14 PM,55.4,35.6,47,29.69,10.0,SSW,8.1,-,N/A,,Clear,200,2011-11-12 20:14:00
3:35 PM,53.6,39.2,58,29.69,10.0,Calm,Calm,-,N/A,,Clear,0,2011-11-12 20:35:00
3:55 PM,51.8,41.0,67,29.69,10.0,WNW,3.5,-,N/A,,Clear,300,2011-11-12 20:55:00
4:14 PM,50.0,41.0,71,29.69,10.0,NW,3.5,-,N/A,,Clear,320,2011-11-12 21:14:00
4:35 PM,48.2,42.8,82,29.69,10.0,Calm,Calm,-,N/A,,Clear,0,2011-11-12 21:35:00
4:54 PM,48.2,42.8,82,29.69,10.0,Calm,Calm,-,N/A,,Clear,0,2011-11-12 21:54:00
5:14 PM,46.4,41.0,81,29.69,10.0,Calm,Calm,-,N/A,,Clear,0,2011-11-12 22:14:00
5:35 PM,44.6,41.0,87,29.68,7.0,Calm,Calm,-,N/A,,Clear,0,2011-11-12 22:35:00
5:54 PM,42.8,39.2,87,29.68,7.0,Calm,Calm,-,N/A,,Clear,0,2011-11-12 22:54:00
6:14 PM,41.0,39.2,93,29.68,7.0,SE,3.5,-,N/A,,Clear,130,2011-11-12 23:14:00
6:35 PM,42.8,41.0,93,29.67,7.0,Calm,Calm,-,N/A,,Clear,0,2011-11-12 23:35:00
6:54 PM,41.0,39.2,93,29.66,10.0,SE,4.6,-,N/A,,Clear,140,2011-11-12 23:54:00
7:14 PM,42.8,37.4,81,29.65,10.0,SE,5.8,-,N/A,,Clear,140,2011-11-13 00:14:00
7:35 PM,50.0,37.4,62,29.64,10.0,South,8.1,-,N/A,,Clear,180,2011-11-13 00:35:00
7:54 PM,51.8,37.4,58,29.64,10.0,SSE,9.2,17.3,N/A,,Clear,160,2011-11-13 00:54:00
8:34 PM,50.0,37.4,62,29.63,10.0,SSE,8.1,-,N/A,,Clear,160,2011-11-13 01:34:00
8:54 PM,50.0,37.4,62,29.62,10.0,South,9.2,18.4,N/A,,Clear,170,2011-11-13 01:54:00
9:15 PM,50.0,35.6,58,29.62,10.0,SE,6.9,-,N/A,,Clear,140,2011-11-13 02:15:00
9:35 PM,50.0,35.6,58,29.61,10.0,SE,8.1,-,N/A,,Clear,140,2011-11-13 02:35:00
9:54 PM,50.0,35.6,58,29.61,10.0,SSE,9.2,-,N/A,,Clear,160,2011-11-13 02:54:00
10:35 PM,50.0,35.6,58,29.58,10.0,SSE,9.2,-,N/A,,Clear,160,2011-11-13 03:35:00
10:54 PM,50.0,35.6,58,29.58,10.0,SSE,10.4,16.1,N/A,,Clear,160,2011-11-13 03:54:00
11:15 PM,50.0,35.6,58,29.57,10.0,SSE,10.4,-,N/A,,Clear,160,2011-11-13 04:15:00
11:34 PM,50.0,35.6,58,29.57,10.0,South,10.4,-,N/A,,Clear,170,2011-11-13 04:34:00
11:54 PM,50.0,35.6,58,29.56,10.0,South,9.2,16.1,N/A,,Clear,170,2011-11-13 04:54:00